Location: Unspecified
(17.6330°N, 0.0000°E)
Time: 06:37:35
(UTC+00:00)

Transit 2A Rocket - Visible Passes

Search period start: 19 October 2019 00:00
Search period end: 29 October 2019 00:00
Orbit: 594 x 910 km, 66.7° (Epoch: 17 October)

Date Brightness Start Highest point End Pass type
(mag) Time Alt. Az. Time Alt. Az. Time Alt. Az.
19 Oct 5.0 04:06:25 39° SSW 04:08:29 81° ESE 04:13:36 10° NNE visible
20 Oct 6.6 03:27:45 30° ENE 03:27:45 30° ENE 03:30:48 10° NE visible
20 Oct 6.5 05:07:49 16° WNW 05:08:27 16° WNW 05:11:31 10° NNW visible
21 Oct 6.4 04:28:20 21° NNW 04:28:20 21° NNW 04:30:23 10° N visible
22 Oct 7.5 03:48:24 10° NNE 03:48:24 10° NNE 03:48:27 10° NNE visible
